STARLINK-1255, 45399

Orbit data source: Space-Track

STARLINK-1255, 45399 is a payload satellite owned by SpaceX/Seattle (US) in LEO that was launched on Wed, 18 Mar 2020 UTC via an FALCON 9 launch vehicle from the Air Force Eastern Test Range (AFETR). Payloads include a variety of satellites, spacecraft, and rockets equipped with specific instruments for various scientific and technological missions. These include communications satellites like Starlink; space stations such as the ISS; scientific satellites like the Hubble; Earth observation satellites from companies like Planet Labs, Umbra, and HawkEye 360; GPS; miniature CubeSats for education and research; and military/defense satellites.

Loading next visibility...
STARLINK-1255 details
Identifier
45399, 2020-019AR
Orbit
LEO
Last TLE update21 hours ago
Origin
Flag of USSpaceX/Seattle (US)
ManufacturerSpaceX/Seattle
MissionOperational Commercial Communications
Bus & MotorSTARLINK, Unknown motor
Mass260 kg wet, ~248 kg dry
Launch date (UTC)
2020-03-18 (5 years ago)
Launch vehicle
FALCON 9
Launch site
Air Force Eastern Test Range (AFETR)
Object type
Payload
Rocket body
Debris
Shape & HBRBox + 1 Pan, 8.86 m
Radar Cross Section13.562 m², Large (>1 m²)

Expand to show TLE details & history

TLE from 21 hours ago
0 STARLINK-1255
1 45399U 20019AR  24338.50641954  .00023844  00000-0  16148-2 0  9999
2 45399  53.0540  46.9516 0001732  92.0312 268.0875 15.06387094260445
Epoch: 2024-12-03T12:09Z
Definitive object data (Epoch: 2024-12-03T12:09:14.648Z)
Latitude-0.00004°
Longitude151.82559°
Altitude548.17 km
Speed7.589 km/s
True Right ascension03h 07m 48s
True Declination0° 00' 00"
Sunlit
Object was in full shadow at TLE epoch
Visualization TLE readout
Latitude28.94688°
Longitude172.35887°
Altitude547.999 km
Speed7.592 km/s
Apparent Right ascension00h 54m 27s
Apparent Declination-11° 35' 11"
Sunlit
Object is in full shadow
Visualization observer readout
Local Sidereal Time06:55:17
Azimuth261.193° W
Elevation-7.561°
Doppler factor1
Orbital elements
Apogee altitude548.721 km
Perigee altitude546.322 km
Semi-major axis6,925.659 km
Eccentricity0.0001732
Inclination53.054°
RAAN46.9516°
Arg. of periapsis92.0312°
True anomaly268.06766°
Mean anomaly268.0875°
Eccentric anomaly268.07758°
Mean motion3.76575 °/min
BSTAR0.0016148
Orbital period95.6 mins
Loading maneuver chart data...
Loading historical data...
Loading historical data...
Loading historical data...
Loading historical data...
Loading historical data...
Loading historical data...
Loading historical data...

STARLINK-1255 Visibility forecast

Observer location: undefined°, undefined

Span
Click to sort rows by Start time (UTC) header in descending order
Start Az.
Max El. time (UTC)
Max El. Az.
Max El.
End time (UTC)
End Az.
5 mins2024-12-04 09:07:04.780Z292.593° NW2024-12-04 09:09:04.780Z326.612° NNW20.313°2024-12-04 09:12:04.780Z22.392° NNE
4 mins2024-12-04 12:30:04.780Z359.363° N2024-12-04 12:31:04.780Z19.125° NNE18.802°2024-12-04 12:34:04.780Z67.725° E
6 mins2024-12-04 14:09:04.780Z314.698° NW2024-12-04 14:11:04.780Z13.96° NNE44.492°2024-12-04 14:15:04.780Z126.808° SE
6 mins2024-12-05 07:21:04.780Z239.478° WSW2024-12-05 07:23:04.780Z290.231° WNW43.681°2024-12-05 07:27:04.780Z47.136° ENE
|